Location: Amsterdam
(30.7274°N, 84.4357°W)
Time: 00:18:08
(UTC+00:00)

Tiros 1 - Pass Details

Date: 17 February 2026
Orbit: 618 x 649 km, 48.4° (Epoch: 9 March)

Event Time Altitude Azimuth Distance (km) Brightness Sun altitude
Rises 21:20:05 0° 307° (NW) 2,883 10.8 24.4°
Reaches altitude 10° 21:22:25 10° 304° (WNW) 1,976 10.1 24.0°
Maximum altitude 21:26:52 59° 225° (SW) 711 8.4 23.2°
Drops below altitude 10° 21:31:20 10° 145° (SE) 1,976 9.7 22.3°
Sets 21:33:40 0° 142° (SE) 2,883 10.4 21.9°
